[[{"header":{"parameterUnit":"m.s-1","parameterCategory":1,"la1":30.2991,"la2":30.254,"lo1":-89.0895,"lo2":-89.0444,"dy":0.0017,"dx":0.0017,"nx":28,"ny":28,"refTime":"2026-01-03T09:00:00:Z","depth":0,"parameterNumber":2,"parameterNumberName":"U-component_of_WINDS"},"data":[0,0,0,0,0,0,0,0,0,0,0,0,0,0,0,0,0,0,0,0,0,0,0,0,0,0,0,0,0,0,0,0,0,0,0,0,0,0,0,0,0,0,0,0,0,0,0,0,0,0,0,0,0,0,0,0,0,0,-2.6318,-2.6318,0,-2.6332,-2.6332,-2.6332,-2.6281,-2.628,-2.6278,-2.6277,-2.6291,-2.6293,-2.6295,0,0,0,0,0,0,0,0,0,0,0,0,0,-2.6247,-2.6248,-2.6318,-2.6318,-2.6318,-2.6332,-2.6332,-2.6332,-2.6282,-2.628,-2.6278,-2.6276,-2.6291,-2.6293,-2.6295,0,0,0,0,0,0,0,0,0,0,0,0,0,-2.6271,-2.6249,-2.6318,-2.6295,-2.6293,-2.6332,-2.6332,-2.6333,-2.6282,-2.628,-2.6278,-2.6275,-2.629,-2.6293,-2.6295,-2.6357,0,0,-2.6303,-2.6305,0,0,0,0,0,0,0,0,-2.627,-2.6274,-2.6298,-2.6296,-2.6294,-2.6303,-2.6312,-2.6341,-2.6283,-2.6286,-2.6277,-2.6274,-2.6297,-2.6299,-2.6306,-2.6358,-2.6359,-2.6304,-2.6305,-2.6306,-2.6307,0,0,0,0,0,0,0,-2.6268,-2.6273,-2.6324,-2.6298,-2.6296,-2.6283,-2.6284,-2.6317,-2.6304,-2.6286,-2.6282,-2.6284,-2.6295,-2.6304,-2.6306,-2.6359,-2.6304,-2.6306,-2.6308,-2.6309,-2.6462,-2.6464,0,0,0,0,0,0,-2.6269,-2.6272,-2.6323,-2.6324,-2.6276,-2.6287,-2.6288,-2.6302,-2.6304,-2.6302,-2.6286,-2.6282,-2.6301,-2.6303,-2.6307,-2.638,-2.6306,-2.6309,-2.6311,-2.6459,-2.6462,-2.6465,0,0,0,0,0,0,-2.6268,-2.6274,-2.6323,-2.6297,-2.6302,-2.629,-2.6307,-2.6304,-2.6312,-2.6304,-2.6301,-2.6298,-2.6299,-2.6303,-2.6345,-2.6379,-2.631,-2.6313,-2.6457,-2.646,-2.6464,-2.6526,0,0,0,0,0,0,-2.6266,-2.6274,-2.6298,-2.6298,-2.6304,-2.6361,-2.6309,-2.6306,-2.6317,-2.6312,-2.6314,-2.6312,-2.6297,-2.6341,-2.6348,-2.6382,-2.6315,-2.6453,-2.6458,-2.6463,-2.6521,-2.6531,-2.654,0,0,0,0,0,-2.6264,-2.6315,-2.63,-2.6306,-2.6333,-2.6363,-2.6367,-2.6348,-2.632,-2.6344,-2.6338,-2.6312,-2.6375,-2.6346,-2.6353,-2.6388,-2.6451,-2.6457,-2.6462,-2.6516,-2.6529,-2.654,0,0,0,0,0,0,-2.632,-2.6315,-2.6297,-2.635,-2.6358,-2.6355,-2.6384,-2.6363,-2.6378,-2.6372,-2.6349,-2.635,-2.6396,-2.6396,-2.6365,-2.6448,-2.6408,-2.6415,-2.6447,-2.6459,-2.6468,-2.6468,-2.6317,0,0,0,0,0,-2.6338,-2.6364,-2.6357,-2.6405,-2.6409,-2.6396,-2.6409,-2.6394,-2.6401,-2.6404,-2.6401,-2.6409,-2.643,-2.6444,-2.6463,-2.652,-2.652,-2.6548,-2.6558,-2.6566,-2.6572,-2.6602,-2.6614,-2.6483,-2.6483,-2.6483,0,0,-2.6377,-2.6377,-2.6394,-2.6416,-2.642,-2.6446,-2.6399,-2.6429,-2.6448,-2.6408,-2.6448,-2.6446,-2.6453,-2.6503,-2.6525,-2.6504,-2.6608,-2.6573,-2.6579,-2.6581,-2.6609,-2.6621,-2.6632,-2.6487,-2.6486,-2.6486,0,0,-2.6461,-2.6463,-2.6503,-2.6508,-2.6514,-2.6505,-2.6515,-2.6515,-2.6512,-2.6552,-2.6522,-2.6544,-2.6581,-2.6587,-2.6595,-2.668,-2.6657,-2.6687,-2.6738,-2.6768,-2.6778,-2.6787,-2.6817,-2.6828,-2.6694,-2.6694,-2.6694,0,-2.6508,-2.6546,-2.6526,-2.6558,-2.6568,-2.6532,-2.6572,-2.6577,-2.659,-2.6598,-2.6575,-2.662,-2.6622,-2.6673,-2.6693,-2.6701,-2.6711,-2.6687,-2.6778,-2.6787,-2.6795,-2.6824,-2.6835,-2.6697,-2.6697,-2.6697,-2.6696,0,-2.6604,-2.6631,-2.6662,-2.6675,-2.6688,-2.6724,-2.6709,-2.6725,-2.6709,-2.6702,-2.6742,-2.6743,-2.6762,-2.6773,-2.6757,-2.6821,-2.6808,-2.6782,-2.6741,-2.6812,-2.6838,-2.6849,-2.6703,-2.6701,-2.67,-2.6699,0,0,-2.6724,-2.6725,-2.6736,-2.6742,-2.6746,-2.6766,-2.68,-2.6818,-2.6832,-2.6842,-2.687,-2.6901,-2.6877,-2.6886,-2.6871,-2.6897,-2.6964,-2.6867,-2.6867,-2.6885,-2.7034,-2.7054,-2.7067,-2.6948,-2.695,-2.6952,-2.7033,0,-2.6806,-2.6864,-2.6846,-2.6905,-2.6929,-2.6896,-2.6925,-2.6931,-2.6925,-2.6945,-2.6938,-2.6961,-2.6927,-2.6933,-2.6956,-2.6951,-2.6994,-2.6945,-2.6974,-2.6975,-2.6973,-2.7081,-2.7102,-2.7179,-2.7044,-2.7045,-2.7047,0,-2.691,-2.6924,-2.6985,-2.6984,-2.6994,-2.7021,-2.7036,-2.7055,-2.7061,-2.7054,-2.7064,-2.7044,-2.7076,-2.7035,-2.708,-2.7047,-2.7057,-2.7056,-2.7059,-2.7061,-2.7015,-2.7086,-2.7203,-2.7215,-2.7063,-2.7062,-2.706,0,-2.6992,-2.7025,-2.7066,-2.7071,-2.7072,-2.7092,-2.7093,-2.7096,-2.7108,-2.7121,-2.7128,-2.7144,-2.7154,-2.7167,-2.7151,-2.7122,-2.7198,-2.7155,-2.7194,-2.7194,-2.7212,-2.7211,-2.7332,-2.7218,-2.7218,-2.7218,-2.7218,0,-2.7086,-2.7125,-2.7103,-2.7128,-2.717,-2.7148,-2.719,-2.7188,-2.7191,-2.7214,-2.7186,-2.7209,-2.7187,-2.7207,-2.7195,-2.7234,-2.7238,-2.7234,-2.723,-2.7237,-2.7237,-2.7244,-2.7238,-2.7221,-2.722,-2.722,-2.7219,0,-2.7185,-2.7172,-2.7214,-2.721,-2.721,-2.7242,-2.7239,-2.7262,-2.7254,-2.7284,-2.729,-2.7277,-2.73,-2.7286,-2.7309,-2.73,-2.7351,-2.734,-2.7349,-2.7346,-2.7386,-2.7382,-2.7516,-2.7532,-2.7408,-2.7409,-2.741,0,-2.7246,-2.7275,-2.7274,-2.7288,-2.7291,-2.7314,-2.7325,-2.7305,-2.7319,-2.7327,-2.7349,-2.7369,-2.7384,-2.7422,-2.7415,-2.7432,-2.7421,-2.7467,-2.7424,-2.7429,-2.7422,-2.7421,-2.7423,-2.7476,-2.7477,-2.7478,-2.7479,0,-2.7355,-2.7347,-2.7365,-2.7381,-2.7396,-2.7407,-2.7417,-2.7429,-2.7409,-2.7425,-2.7448,-2.746,-2.7483,-2.7504,-2.7518,-2.7519,-2.7496,-2.7493,-2.7503,-2.751,-2.7514,-2.7512,-2.7373,-2.749,-2.7489,-2.7488,-2.7488,-2.7487,-2.7437,-2.7461,-2.7465,-2.7485,-2.749,-2.7499,-2.752,-2.7515,-2.7533,-2.7551,-2.7537,-2.7565,-2.7569,-2.7586,-2.7589,-2.761,-2.7592,-2.7606,-2.7609,-2.7613,-2.7619,-2.7511,-2.7613,-2.7612,-2.7612,-2.7612,-2.7611,0,-2.7545,-2.7546,-2.7565,-2.7579,-2.7595,-2.7572,-2.758,-2.7595,-2.762,-2.7625,-2.7641,-2.7667,-2.7686,-2.7681,-2.7698,-2.7716,-2.7705,-2.7721,-2.7719,-2.772,-2.7634,-2.7624,-2.7729,-2.7729,-2.7729,-2.7729,-2.7729,-2.7729,-2.7604,-2.7643,-2.7635,-2.7676,-2.7676,-2.7702,-2.7709,-2.7717,-2.7721,-2.7752,-2.7768,-2.7764,-2.7765,-2.7782,-2.7798,-2.7796,-2.7804,-2.7823,-2.7817,-2.7738,-2.7726,-2.7715,-2.7705,-2.7825,-2.7825,-2.7901,-2.7902,-2.7902]},{"header":{"parameterUnit":"m.s-1","parameterCategory":1,"la1":30.2991,"la2":30.254,"lo1":-89.0895,"lo2":-89.0444,"dy":0.0017,"dx":0.0017,"nx":28,"ny":28,"refTime":"2026-01-03T09:00:00:Z","depth":0,"parameterNumber":3,"parameterNumberName":"V-component_of_WINDS"},"data":[0,0,0,0,0,0,0,0,0,0,0,0,0,0,0,0,0,0,0,0,0,0,0,0,0,0,0,0,0,0,0,0,0,0,0,0,0,0,0,0,0,0,0,0,0,0,0,0,0,0,0,0,0,0,0,0,0,0,-4.5399,-4.54,0,-4.544,-4.544,-4.5441,-4.5379,-4.5377,-4.5375,-4.5373,-4.5411,-4.5414,-4.5417,0,0,0,0,0,0,0,0,0,0,0,0,0,-4.5263,-4.5266,-4.5399,-4.54,-4.54,-4.544,-4.5441,-4.5441,-4.5379,-4.5377,-4.5374,-4.5372,-4.541,-4.5414,-4.5418,0,0,0,0,0,0,0,0,0,0,0,0,0,-4.5315,-4.5267,-4.5399,-4.5374,-4.5372,-4.544,-4.5441,-4.5441,-4.538,-4.5377,-4.5373,-4.537,-4.5409,-4.5414,-4.5418,-4.5511,0,0,-4.5432,-4.5434,0,0,0,0,0,0,0,0,-4.5312,-4.532,-4.5377,-4.5376,-4.5374,-4.5401,-4.5407,-4.5464,-4.5381,-4.5377,-4.5372,-4.5369,-4.541,-4.5415,-4.5429,-4.5513,-4.5514,-4.5432,-4.5435,-4.5437,-4.5438,0,0,0,0,0,0,0,-4.5309,-4.5318,-4.5415,-4.5378,-4.5376,-4.536,-4.5363,-4.5417,-4.5411,-4.5377,-4.5373,-4.5378,-4.5409,-4.5425,-4.543,-4.5515,-4.5432,-4.5436,-4.5439,-4.5441,-4.5676,-4.5679,0,0,0,0,0,0,-4.5309,-4.5315,-4.5414,-4.5416,-4.5335,-4.5365,-4.5369,-4.5396,-4.541,-4.541,-4.5381,-4.5375,-4.5419,-4.5424,-4.5431,-4.5541,-4.5437,-4.5441,-4.5444,-4.5672,-4.5677,-4.568,0,0,0,0,0,0,-4.5306,-4.5318,-4.5412,-4.5365,-4.5375,-4.5371,-4.5401,-4.5398,-4.5414,-4.5414,-4.5412,-4.5399,-4.5416,-4.5424,-4.5491,-4.5541,-4.5443,-4.5447,-4.5668,-4.5674,-4.5678,-4.5761,0,0,0,0,0,0,-4.5302,-4.5317,-4.5354,-4.5366,-4.5378,-4.5474,-4.5404,-4.5401,-4.5423,-4.5416,-4.543,-4.5429,-4.5415,-4.5485,-4.5496,-4.5546,-4.5451,-4.5664,-4.5671,-4.5677,-4.5754,-4.5769,-4.5781,0,0,0,0,0,-4.5298,-4.5375,-4.5356,-4.5368,-4.5424,-4.5477,-4.5483,-4.5466,-4.5427,-4.5463,-4.5462,-4.5429,-4.5534,-4.5492,-4.5504,-4.5556,-4.5661,-4.5669,-4.5676,-4.5748,-4.5766,-4.5781,0,0,0,0,0,0,-4.5367,-4.5376,-4.5355,-4.5439,-4.5458,-4.5466,-4.5511,-4.5485,-4.5515,-4.5507,-4.5483,-4.5486,-4.5559,-4.5563,-4.5518,-4.5646,-4.559,-4.5601,-4.5641,-4.5658,-4.5671,-4.5669,-4.5455,0,0,0,0,0,-4.5392,-4.5436,-4.544,-4.5514,-4.5524,-4.5516,-4.5539,-4.5523,-4.5541,-4.5549,-4.5553,-4.5571,-4.5608,-4.5633,-4.5666,-4.5754,-4.5756,-4.5795,-4.5808,-4.582,-4.5829,-4.5876,-4.5893,-4.5706,-4.5706,-4.5706,0,0,-4.5445,-4.5455,-4.5484,-4.5528,-4.5541,-4.5585,-4.5523,-4.5573,-4.5606,-4.5556,-4.562,-4.5624,-4.5642,-4.572,-4.5754,-4.5726,-4.5881,-4.583,-4.5839,-4.5842,-4.5886,-4.5903,-4.5919,-4.5712,-4.5711,-4.571,0,0,-4.5563,-4.5575,-4.5637,-4.5652,-4.5672,-4.5666,-4.5681,-4.5694,-4.5695,-4.5759,-4.5723,-4.576,-4.5824,-4.5839,-4.5854,-4.5978,-4.5948,-4.5989,-4.606,-4.6106,-4.612,-4.6133,-4.6178,-4.6194,-4.5998,-4.5999,-4.5999,0,-4.5625,-4.5692,-4.5672,-4.5725,-4.5746,-4.5703,-4.5766,-4.578,-4.581,-4.5825,-4.5793,-4.5873,-4.5882,-4.5962,-4.5992,-4.6006,-4.6022,-4.5988,-4.612,-4.6133,-4.6145,-4.6187,-4.6203,-4.6004,-4.6003,-4.6002,-4.6002,0,-4.5768,-4.5815,-4.5862,-4.5894,-4.5919,-4.5977,-4.5964,-4.5992,-4.5974,-4.5971,-4.6037,-4.6046,-4.6081,-4.6099,-4.6081,-4.6177,-4.6159,-4.6124,-4.6068,-4.6168,-4.6207,-4.6223,-4.6011,-4.6009,-4.6007,-4.6006,0,0,-4.5932,-4.5952,-4.597,-4.5984,-4.6003,-4.6038,-4.6093,-4.6128,-4.6153,-4.6174,-4.6219,-4.6274,-4.6242,-4.626,-4.6244,-4.6283,-4.6381,-4.6243,-4.6243,-4.6269,-4.6487,-4.6514,-4.6533,-4.6361,-4.6364,-4.6366,-4.6485,0,-4.6051,-4.6147,-4.613,-4.6223,-4.6266,-4.6226,-4.6274,-4.629,-4.6288,-4.6323,-4.632,-4.636,-4.6314,-4.6325,-4.6362,-4.6361,-4.6424,-4.6352,-4.6402,-4.6404,-4.64,-4.6553,-4.6582,-4.6694,-4.65,-4.6503,-4.6505,0,-4.6202,-4.6231,-4.6329,-4.6342,-4.6359,-4.6402,-4.6433,-4.6467,-4.6484,-4.648,-4.65,-4.6476,-4.6529,-4.6471,-4.6544,-4.6496,-4.6514,-4.6517,-4.6521,-4.6526,-4.6462,-4.6563,-4.673,-4.6747,-4.6529,-4.6527,-4.6525,0,-4.6313,-4.6376,-4.6443,-4.6456,-4.6472,-4.6503,-4.6511,-4.6525,-4.6547,-4.6574,-4.6588,-4.6619,-4.6637,-4.6662,-4.6646,-4.6605,-4.6722,-4.6662,-4.6719,-4.672,-4.6747,-4.6746,-4.692,-4.6758,-4.6757,-4.6757,-4.6757,0,-4.6448,-4.651,-4.6493,-4.6535,-4.6602,-4.6581,-4.6648,-4.6651,-4.6664,-4.6704,-4.667,-4.6708,-4.6685,-4.6721,-4.6709,-4.6771,-4.6779,-4.6777,-4.6773,-4.678,-4.6781,-4.6793,-4.6786,-4.6761,-4.676,-4.676,-4.6759,0,-4.6585,-4.6576,-4.6646,-4.6656,-4.6659,-4.6709,-4.6716,-4.6754,-4.6749,-4.68,-4.6811,-4.6803,-4.6844,-4.6831,-4.6874,-4.6866,-4.6945,-4.6931,-4.694,-4.6937,-4.6995,-4.699,-4.7185,-4.7209,-4.703,-4.7032,-4.7033,0,-4.6672,-4.6719,-4.6733,-4.6758,-4.6769,-4.681,-4.6833,-4.6813,-4.6838,-4.6861,-4.6896,-4.6933,-4.6963,-4.7029,-4.7027,-4.7059,-4.7046,-4.7112,-4.7051,-4.7057,-4.7048,-4.7046,-4.7051,-4.7124,-4.7126,-4.7128,-4.7129,0,-4.6828,-4.6821,-4.6856,-4.689,-4.6919,-4.6944,-4.6965,-4.6987,-4.6969,-4.6999,-4.704,-4.7063,-4.7107,-4.7145,-4.7175,-4.7181,-4.7153,-4.7149,-4.7164,-4.7172,-4.7176,-4.7176,-4.6975,-4.7145,-4.7143,-4.7142,-4.7141,-4.714,-4.6943,-4.6983,-4.7,-4.7039,-4.7054,-4.7075,-4.7111,-4.7111,-4.7146,-4.7182,-4.7167,-4.7216,-4.723,-4.7267,-4.7277,-4.7314,-4.7288,-4.731,-4.7316,-4.7322,-4.733,-4.717,-4.7319,-4.7318,-4.7318,-4.7317,-4.7317,0,-4.7098,-4.7107,-4.7144,-4.7176,-4.7207,-4.7178,-4.72,-4.7228,-4.7271,-4.7288,-4.7318,-4.7365,-4.7402,-4.7402,-4.7435,-4.7464,-4.7452,-4.7474,-4.7472,-4.7474,-4.735,-4.7334,-4.7483,-4.7483,-4.7483,-4.7483,-4.7483,-4.7483,-4.7182,-4.7248,-4.7244,-4.7316,-4.7324,-4.7372,-4.7387,-4.7406,-4.7419,-4.7474,-4.7505,-4.7505,-4.7515,-4.7549,-4.758,-4.7579,-4.7594,-4.7621,-4.7615,-4.7499,-4.7483,-4.7467,-4.7452,-4.7624,-4.7624,-4.7736,-4.7737,-4.7738]}]]